Weather History for Dayton Wright, OH

Change the Weather History Date:

Monday, November 12, 2012

  Actual Average (KFFO) Record (KFFO)
Temperature  
Mean Temperature 47 °F -  
Max Temperature 62 °F 50 °F 70 °F (2010)
Min Temperature 32 °F 33 °F 21 °F (1997)
Degree Days  
Heating Degree Days 18    
Moisture  
Dew Point 43 °F    
Average Humidity 89    
Maximum Humidity 100    
Minimum Humidity 58    
Precipitation  
Precipitation 0.87 in - - ()
Sea Level Pressure  
Sea Level Pressure 30.12 in    
Wind  
Wind Speed 13 mph (WSW)    
Max Wind Speed 20 mph    
Max Gust Speed 32 mph    
Visibility 7 miles    
Events Rain    
Averages and records for this station are not official NWS values.
T = Trace of Precipitation, MM = Missing Value Source: NWS Daily Summary

Daily Weather History Graph

Daily Weather History Graph

Search for Another Location

Airport:

Trip Planner

Search our weather history database for the weather conditions in past years. The results will help you decide how hot, cold, wet, or windy it might be!

Date:

Astronomy

Nov. 12, 2012 Rise Set
Actual Time 7:18 AM EST 5:23 PM EST
Civil Twilight 6:49 AM EST 5:52 PM EST
Nautical Twilight 6:17 AM EST 6:24 PM EST
Astronomical Twilight 5:45 AM EST 6:56 PM EST
Moon 5:42 AM EST (11/12) 4:27 PM EST (11/12)
Length of Visible Light 11h 02m
Length of Day
10h 05m
Waning Crescent, 2% of the Moon is Illuminated
Nov 12
Waning Crescent
Nov 13
New
Nov 20
First Quarter
Nov 28
Full
Dec 6
Last Quarter

Hourly Weather History & Observations

Time (EST) Temp. Windchill Dew Point Humidity Pressure Visibility Wind Dir Wind Speed Gust Speed Precip Events Conditions
12:53 AM 61.0 °F - 46.0 °F 58% 30.07 in 10.0 mi South 17.3 mph 24.2 mph N/A   Partly Cloudy
1:53 AM 61.0 °F - 46.9 °F 60% 30.06 in 10.0 mi South 19.6 mph 31.1 mph N/A   Clear
2:53 AM 61.0 °F - 48.0 °F 62% 30.03 in 10.0 mi South 18.4 mph 31.1 mph N/A   Clear
3:53 AM 62.1 °F - 48.0 °F 60% 30.01 in 10.0 mi South 17.3 mph 32.2 mph N/A   Scattered Clouds
4:53 AM 57.9 °F - 52.0 °F 81% 30.01 in 8.0 mi South 16.1 mph 31.1 mph 0.03 in Rain Light Rain
5:53 AM 55.9 °F - 53.1 °F 90% 30.02 in 4.0 mi South 13.8 mph 21.9 mph 0.09 in Rain Light Rain
6:11 AM 55.4 °F - 53.6 °F 94% 30.01 in 5.0 mi SSE 12.7 mph - 0.02 in Rain Light Rain
6:18 AM 55.4 °F - 53.6 °F 94% 30.01 in 7.0 mi South 12.7 mph - 0.02 in Rain Light Rain
6:53 AM 55.0 °F - 53.1 °F 93% 30.00 in 8.0 mi South 17.3 mph 21.9 mph 0.06 in Rain Light Rain
7:27 AM 55.4 °F - 53.6 °F 94% 30.00 in 9.0 mi SSW 9.2 mph 21.9 mph 0.02 in Rain Light Rain
7:37 AM 55.4 °F - 53.6 °F 94% 30.01 in 4.0 mi SW 9.2 mph - 0.04 in Rain Light Rain
7:48 AM 55.4 °F - 53.6 °F 94% 30.02 in 2.5 mi SW 9.2 mph - 0.08 in Rain Rain
7:53 AM 55.0 °F - 54.0 °F 96% 30.01 in 2.5 mi SSW 9.2 mph - 0.11 in Rain Rain
8:08 AM 55.4 °F - 53.6 °F 94% 30.02 in 3.0 mi SSW 12.7 mph 17.3 mph 0.04 in Rain Rain
8:12 AM 55.4 °F - 55.4 °F 100% 30.01 in 2.0 mi South 11.5 mph - 0.07 in Rain Heavy Rain
8:27 AM 55.4 °F - 55.4 °F 100% 30.02 in 1.8 mi SSW 12.7 mph - 0.11 in Rain Rain
8:40 AM 55.4 °F - 55.4 °F 100% 30.01 in 2.0 mi South 13.8 mph 18.4 mph 0.15 in Rain Light Rain
8:44 AM 55.4 °F - 55.4 °F 100% 30.01 in 3.0 mi South 15.0 mph - 0.16 in Rain Light Rain
8:53 AM 55.9 °F - 55.9 °F 100% 30.01 in 4.0 mi SSW 17.3 mph 25.3 mph 0.16 in Rain Light Rain
9:07 AM 57.2 °F - 55.4 °F 94% 30.03 in 3.0 mi West 15.0 mph 21.9 mph 0.03 in Rain Rain
9:10 AM 55.4 °F - 53.6 °F 94% 30.03 in 1.8 mi West 12.7 mph 21.9 mph 0.07 in Rain Rain
9:14 AM 53.6 °F - 51.8 °F 94% 30.03 in 1.8 mi WNW 12.7 mph 21.9 mph 0.08 in Rain Rain
9:19 AM 51.8 °F - 51.8 °F 100% 30.03 in 2.5 mi WNW 13.8 mph 21.9 mph 0.09 in Rain Light Rain
9:23 AM 51.8 °F - 50.0 °F 94% 30.04 in 3.0 mi WNW 12.7 mph 19.6 mph 0.10 in Rain Rain
9:32 AM 51.8 °F - 51.8 °F 100% 30.04 in 2.5 mi WNW 9.2 mph 18.4 mph 0.12 in Rain Rain
9:43 AM 51.8 °F - 51.8 °F 100% 30.04 in 3.0 mi West 6.9 mph - 0.15 in Rain Rain
9:53 AM 51.1 °F - 51.1 °F 100% 30.05 in 2.5 mi West 8.1 mph - 0.17 in Rain Rain
10:07 AM 51.8 °F - 51.8 °F 100% 30.07 in 3.0 mi West 17.3 mph 27.6 mph 0.03 in Rain Light Rain
10:15 AM 48.2 °F - 46.4 °F 93% 30.08 in 4.0 mi West 17.3 mph 32.2 mph 0.04 in Rain Light Rain
10:29 AM 48.2 °F - 46.4 °F 93% 30.08 in 4.0 mi WNW 11.5 mph 23.0 mph 0.06 in Rain Light Rain
10:53 AM 46.0 °F 40.2 °F 46.0 °F 100% 30.09 in 6.0 mi WNW 12.7 mph - 0.09 in Rain Light Rain
11:53 AM 43.0 °F 36.4 °F 41.0 °F 93% 30.13 in 7.0 mi WNW 12.7 mph 21.9 mph 0.02 in Rain Light Rain
12:00 PM 42.8 °F 35.8 °F 41.0 °F 93% 30.12 in 10.0 mi WNW 13.8 mph 20.7 mph 0.00 in Rain Light Rain
12:53 PM 41.0 °F 35.8 °F 39.9 °F 96% 30.12 in 4.0 mi West 8.1 mph - 0.05 in Rain Light Rain
1:00 PM 41.0 °F 33.5 °F 39.2 °F 93% 30.12 in 4.0 mi WNW 13.8 mph 19.6 mph 0.01 in Rain Light Rain
1:35 PM 37.4 °F 29.8 °F 37.4 °F 100% 30.14 in 4.0 mi West 11.5 mph 17.3 mph 0.08 in Rain Light Rain
1:53 PM 37.0 °F 29.3 °F 36.0 °F 96% 30.16 in 8.0 mi West 11.5 mph - 0.09 in Rain Light Rain
1:59 PM 37.4 °F 30.8 °F 35.6 °F 93% 30.14 in 10.0 mi West 9.2 mph 17.3 mph 0.00 in   Overcast
2:06 PM 35.6 °F 28.6 °F 35.6 °F 100% 30.14 in 10.0 mi West 9.2 mph - 0.00 in   Overcast
2:39 PM 37.4 °F 31.4 °F 35.6 °F 93% 30.17 in 10.0 mi West 8.1 mph - 0.00 in   Overcast
2:53 PM 37.0 °F 29.3 °F 35.1 °F 93% 30.17 in 10.0 mi West 11.5 mph - 0.00 in   Overcast
3:16 PM 37.4 °F 29.8 °F 35.6 °F 93% 30.17 in 10.0 mi West 11.5 mph - N/A   Overcast
3:29 PM 37.4 °F 30.3 °F 33.8 °F 87% 30.19 in 10.0 mi West 10.4 mph - N/A   Overcast
3:37 PM 37.4 °F 30.3 °F 33.8 °F 87% 30.20 in 10.0 mi WSW 10.4 mph - N/A   Overcast
3:48 PM 37.4 °F 29.3 °F 33.8 °F 87% 30.21 in 10.0 mi West 12.7 mph - N/A   Mostly Cloudy
3:53 PM 37.0 °F 29.3 °F 34.0 °F 89% 30.22 in 10.0 mi West 11.5 mph - N/A   Overcast
4:11 PM 37.4 °F 30.3 °F 32.0 °F 81% 30.21 in 10.0 mi WSW 10.4 mph - N/A   Mostly Cloudy
4:37 PM 37.4 °F 30.8 °F 32.0 °F 81% 30.23 in 10.0 mi WSW 9.2 mph - N/A   Mostly Cloudy
4:53 PM 37.0 °F 31.0 °F 32.0 °F 82% 30.25 in 10.0 mi WSW 8.1 mph - N/A   Scattered Clouds
5:53 PM 36.0 °F 29.6 °F 28.0 °F 73% 30.27 in 10.0 mi WSW 8.1 mph - N/A   Clear
6:53 PM 35.1 °F 29.3 °F 28.0 °F 76% 30.30 in 10.0 mi SW 6.9 mph - N/A   Clear
7:53 PM 35.1 °F 30.1 °F 28.0 °F 76% 30.31 in 10.0 mi WSW 5.8 mph - N/A   Clear
8:53 PM 34.0 °F 28.8 °F 26.1 °F 73% 30.35 in 10.0 mi WSW 5.8 mph - N/A   Clear
9:53 PM 33.1 °F 27.7 °F 25.0 °F 72% 30.38 in 10.0 mi West 5.8 mph - N/A   Clear
10:53 PM 32.0 °F 26.4 °F 25.0 °F 75% 30.39 in 10.0 mi WSW 5.8 mph - N/A   Clear
11:53 PM 32.0 °F 27.5 °F 24.1 °F 73% 30.40 in 10.0 mi WSW 4.6 mph - N/A   Clear